Hourly Data Report for October 22, 2016

All times are specified in Local Standard Time (LST). Add 1 hour to adjust for Daylight Saving Time where and when it is observed.

CLYDE RIVER A
NUNAVUT

70°29'09.000" N
68°31'01.000" W
26.50 m
2400804
71090
YCY

Download Data

Hourly Data (October 2016)
Hourly Data Report for October 22, 2016
Temp Definition
°C
Dew Point Temp Definition
°C
Rel Hum Definition
%
Wind Dir Definition
10's deg

Wind Spd Definition
km/h
Visibility Definition
km
Stn Press Definition
kPa
Hmdx Definition


Wind Chill Definition


Weather Definition


TIME
00:00 Legend Double Dagger -4.4 -5.7 91 34 39 4.8 101.18   -13 Snow
01:00 Legend Double Dagger -4.4 -5.5 92 34 46 1.6 101.24   -14 Snow
02:00 Legend Double Dagger -4.6 -6.8 85 34 35 4.8 101.35   -13 Snow
03:00 Legend Double Dagger -4.7 -7.6 80 34 39 12.9 101.42   -14 Snow
04:00 Legend Double Dagger -4.7 -7.5 81 34 37 11.3 101.52   -13 LegendNANA
05:00 Legend Double Dagger -4.6 -7.4 81 34 34 16.1 101.62   -13 Snow
06:00 Legend Double Dagger -4.8 -6.2 90 34 39 2.4 101.71   -14 Snow
07:00 Legend Double Dagger -4.8 -6.3 89 33 37 4.0 101.77   -14 Snow
08:00 Legend Double Dagger -4.6 -8.2 76 34 26 16.1 101.87   -12 Snow
09:00 Legend Double Dagger -5.1 -6.9 87 33 22 16.1 101.96   -12 Snow
10:00 Legend Double Dagger -5.3 -6.9 89 34 39 8.1 101.99   -14 Snow
11:00 Legend Double Dagger -5.5 -7.3 87 34 28 4.8 102.10   -13 Snow
12:00 Legend Double Dagger -5.1 -8.5 77 33 24 16.1 102.15   -12 Snow
13:00 Legend Double Dagger -5.8 -8.7 80 33 28 16.1 102.21   -14 LegendNANA
14:00 Legend Double Dagger -6.4 -8.1 88 33 35 9.7 102.26   -15 Snow
15:00 Legend Double Dagger -6.6 -9.2 82 34 24 16.1 102.32   -14 Snow
16:00 Legend Double Dagger -7.3 -10.6 78 33 26 16.1 102.37   -15 LegendNANA
17:00 Legend Double Dagger -7.2 -9.9 81 31 21 16.1 102.42   -15 Snow
18:00 Legend Double Dagger -7.0 -10.2 78 31 18 16.1 102.44   -14 Snow
19:00 Legend Double Dagger -9.0 -12.2 78 29 26 16.1 102.43   -18 LegendNANA
20:00 Legend Double Dagger -11.9 -14.2 83 29 21 16.1 102.45   -20 LegendNANA
21:00 Legend Double Dagger -11.2 -14.2 79 29 24 16.1 102.46   -20 LegendNANA
22:00 Legend Double Dagger -11.4 -14.7 77 28 26 16.1 102.45   -21 LegendNANA
23:00 Legend Double Dagger -11.8 -15.4 75 29 26 16.1 102.43   -21 LegendNANA

Notes on Data Quality.

Legend

  • E = Estimated
  • M = Missing
  • NA = Not Available
  • ‡ = Partner data that is not subject to review by the National Climate Archives
Date modified: